Back to catalog

STARLINK-32674

AliveCommunicationsVLEO
NORAD 62434·PAYLOAD·🇺🇸 United States

Launched Dec 29, 2024 from Vandenberg Space Force Base

Loading…

Next Passes (next 24 hours)

TLE

FreshSource: CelesTrak SupGP

Epoch: Sep 14, 2026, 15:20 UTC

1 62434C 24251C   26257.63937500  .00066519  00000+0  19658-2 0  2572
2 62434  53.1568 174.8032 0001248  90.2477  56.1389 15.34349610    17

Track STARLINK-32674 in real time with AllMySat

Download on the App Store